Location: Newark
(10.3333°N, 37.7167°E)
Time: 05:17:50
(UTC+00:00)

STARLINK-1113 - Pass Details

Date: 04 February 2020
Orbit: 533 x 535 km, 53.0° (Epoch: 19 February)

Event Time Altitude Azimuth Distance (km) Brightness Sun altitude
Rises 16:43:11 0° 330° (NNW) 2,632 7.3 -17.2°
Reaches altitude 10° 16:45:25 10° 334° (NNW) 1,743 6.3 -17.7°
Maximum altitude 16:49:19 60° 55° (NE) 590 3.4 -18.6°
Enters shadow 16:50:17 44° 111° (ESE) 718 3.8 -18.9°
